Погода Боковская

Погода Боковская : погода сейчас, прогноз погоды и архив. Всё, что Вы хотите узнать о погоде Боковская!

Хотите узнать прогноз погоды Боковская? Тогда Вам сюда: Погода Боковская

Поиск расширенной информации на нашем сайте:

Другие новости

Новости СМИ2

Главная страница сайта

Новости сайта

03.07.2017

Напоминаем, что на нашем специализированном сайте Метеоцентр.Азия вы можете получить высокодетализированные автоматические прогнозы погоды по пунктам России, СНГ и мира в авиационном формате (включающие направление и скорость ветра, видимость, явления погоды, количество и форму облачности, нижнюю и верхнюю границу облачности).

Рекомендуем: Tom Ford Amber Absolute парфюм

Погода Боковская - сегодня

Время (UTC), дата Ветер
(°,м/с) 
Видим.   Явления Облачность Т
(°С)
Тd
(°С)
f(%) Тe
(°С)
Pmin
(гПа)
dP
(гПа)
Po
(мм)
O2
(г/м3)
Тmin Tmax R s Состояние
почвы
00 16.02.18 110 (В) 20000 м    10/0 средняя 
[As op]
-4.4 -8.1 75 -8  1035.6  -0.5  768  315           
03 16.02.18 100 (В) 20000 м    10/0 средняя 
[As op]
-4.6 -8.7 73 -8  1035.5  -0.1  768  316  -4.6      равномерный
сухой снег
100% 
06 16.02.18 120 (ЮВ) 20000 м    9/0 средняя 
[Ac As]
-4.7 -9.2 71 -8  1035.9  0.4  768  316  -5         
09 16.02.18 110 (В) 4-10{10}  20000 м    10/0 средняя 
[Ac As]
-2.1 -9.1 59 -5  1035.4  -0.5  768  313           
12 16.02.18 110 (В) 4{12}  20000 м    10/0 средняя 
[Ac As]
-0.9 -8.1 58 -3  1034.6  -0.7  767  311           
15 16.02.18 100 (В) 20000 м    10/10 600 м 
[Sc]
-2.2 -7 70 -3  1034.2  -0.4  767  312    +0.2       
18 16.02.18 110 (В) 20000 м    10/10 600 м 
[Sc]
-2.6 -7.5 69 -5  1033.2  -1  766  312           
21 16.02.18 110 (В) 4{10}  20000 м    10/0 средняя 
[As op]
-3.7 -8.1 71 -7  1032.8  -0.4  766  314           
00 17.02.18 100 (В) 20000 м    10/0 средняя 
[As op]
-4.7 -8.4 75 -6  1031.9  -1  765  315           
03 17.02.18 080 (В) 20000 м    10/0 средняя 
[As op]
-5.4 -8.7 78 -7  1031  -0.9  764  315  -5.4      равномерный
сухой снег
100% 
06 17.02.18 110 (В) 4000 м  слаб. снег  10/10 200 м 
[Frnb|Ns]
-5.7 -7.5 87 -8  1030.5  -0.5  764  315  -5.7         
09 17.02.18 120 (ЮВ) 2000 м  снег  10/10 200 м 
[Frnb|Ns]
-4.2 -5.9 88 -6  1029.4  -1  763  313           
12 17.02.18 090 (В) 20000 м  {снег}  10/0 средняя 
[As op]
-2.6 -6.7 73 -5  1027.3  -2  762  311           
15 17.02.18 110 (В) 20000 м    10/0 средняя 
[As op]
-2.8 -7.2 72 -6  1026.3  -1  761  311    -2.3     
18 17.02.18 110 (В) 4000 м  слаб. снег  10/0 средняя 
[As op]
-3.3 -5.1 87 -6  1025.8  -0.5  761  311           
21 17.02.18 110 (В) 2000 м  снег  10/10 200 м 
[Frnb|Ns]
-3.8 -4.7 93 -7  1024.2  -1.5  759  311           
00 18.02.18 120 (ЮВ) 2000 м  снег  10/10 200 м 
[Frnb|Ns]
-3.9 -4.7 94 -6  1023.4  -0.8  759  311           
03 18.02.18 120 (ЮВ) 2000 м  снег  10/10 200 м 
[Frnb|Ns]
-4.8 -5.7 93 -7  1022.2  -1.2  758  311  -4.8    12     
06 18.02.18 130 (ЮВ) 2000 м  слаб. снег  10/10 200 м 
[Frnb|Ns]
-4.9 -6.1 91 -7  1022.5  0.3  758  312  -5.3         
09 18.02.18 130 (ЮВ) 4000 м  слаб. снег  10/10 200 м 
[Frnb|Ns]
-2.9 -5.6 82 -4  1022  -0.4  758  309           
12 18.02.18 190 (Ю) 20000 м  {снег}  10/0 средняя 
[As op]
-3.2 -6.7 77 -3  1021.9  0.1  758  310           
15 18.02.18 тихо ()   20000 м    10/0 средняя 
[Ac As]
-3.8 -6.5 81 -4  1022.2  0.4  758  310    -2.4     
18 18.02.18 270 (З) 20000 м    10/0 средняя 
[As op]
-4.5 -6.3 87 -4  1022.9  0.6  758  311           
21 18.02.18 180 (Ю) 20000 м    10/0 средняя 
[As op]
-4.6 -6.4 87 -6  1023.2  0.3  759  312           
00 19.02.18 тихо ()   20000 м    10/0 средняя 
[As op]
-4.7 -6.3 89 -5  1022.5  -0.7  758  311           
Время (UTC), дата Ветер
(°,м/с) 
Видим.   Явления Облачность Т
(°С)
Тd
(°С)
f(%) Тe
(°С)
Pmin
(гПа)
dP
(гПа)
Po
(мм)
O2
(г/м3)
Тmin Tmax R s Состояние
почвы

Для получения пояснительной информации подведите курсор к названию столбца.

ПОГОДА Боковская - архив

Всё, что Вы хотите узнать о погоде Боковская - удобно и подробно!

Выберите нужную дату (начиная с 1 января 2015* года) и нажмите кнопку "Найти".
Будут отображены архивные сводки погоды по пункту Боковская, начиная с указанной даты.


Отображать данные в формате CSV (для использования в таблицах Excel)


Внимание! Наш архив погоды предназначен исключительно для личного некоммерческого использования в познавательных целях. Если Вам необходимы официальные справки о состоянии погоды (для производственных, юридических, коммерческих и т.п. целей), обращайтесь в органы Росгидромета.

*Примечание: данная дата относится к архиву по метеостанциям СССР (Россия, СНГ, Балтия).
Архив по метеостанциям Зарубежной Европы и Азии (кроме Китая) хранится 10 дней, по другим регионам земного шара (Китай, Африка, Америка, Австралия, Океания) - 1 день.

Боковская - район местоположения метеостанции


Название, широта, долгота, высота метеостанции:
Боковская 49.2°ш. 41.8°д. 91 м над ур. моря [Российская Федерация]

Дополнительная информация

В oтличие oт бoльшинства пoгoдных сайтoв мы публикуем пoдрoбную метеoинфoрмацию в детальнoм прoфессиoнальнoм фoрмате.

Характеристики температуры и влажнoсти вoздуха измеряются на высoте 2 м в тени вдали oт зданий и деревьев.
Скoрoсть ветра измеряется на высoте 10 м (на урoвне рoста челoвека скoрoсть ветра ниже в 1.5-2 раза). Если метеoстанция нахoдится в гoрoде или в лесу, тo скoрoсть ветра занижена на 2-4 м/с пo сравнению с oткрытым местoм. Скoрoсть ветра над акватoриями крупных рек и oзёр, а также на вершинах хoлмoв на 2-5 м/с выше, чем в oбычных услoвиях.
Атмoсфернoе давление в разных тoчках местнoсти мoжет значительнo oтличаться oт давления на метеoстанции, в зависимoсти oт услoвий рельефа (при пoдъёме на 10 м давление пoнижается примернo на 1 мм рт.ст.).